Location: Newark
(35.9031°N, 139.7175°E)
Time: 05:50:49
(UTC+00:00)

SR - Visible Passes

Search period start: 06 June 2020 00:00
Search period end: 16 June 2020 00:00
Orbit: 582 x 874 km, 66.7° (Epoch: 05 June)

Date Brightness Start Highest point End Pass type
(mag) Time Alt. Az. Time Alt. Az. Time Alt. Az.
06 Jun ? 12:21:57 10° N 12:25:01 19° NE 12:25:22 19° ENE visible
06 Jun ? 14:03:15 10° NW 14:04:46 19° WNW 14:04:46 19° WNW visible
07 Jun ? 13:13:16 10° NNW 13:16:17 45° NNW 13:16:17 45° NNW visible
08 Jun ? 12:23:50 10° N 12:27:50 38° ENE 12:27:50 38° ENE visible
08 Jun ? 14:06:58 10° WNW 14:07:14 11° WNW 14:07:14 11° WNW visible
09 Jun ? 11:35:00 10° N 11:37:54 18° NE 11:39:25 15° ENE visible
09 Jun ? 13:16:07 10° NW 13:18:49 30° WNW 13:18:49 30° WNW visible
10 Jun ? 12:26:12 10° NNW 12:30:26 85° NE 12:30:26 85° NE visible
11 Jun ? 11:36:48 10° N 11:40:44 35° ENE 11:42:06 28° E visible
11 Jun ? 13:19:41 10° WNW 13:21:30 16° W 13:21:30 16° W visible
12 Jun ? 10:48:03 10° N 10:50:48 16° NE 10:53:30 10° E visible
12 Jun ? 12:28:59 10° NW 12:32:58 40° WSW 12:33:12 40° WSW visible
13 Jun ? 11:39:07 10° NNW 11:43:22 79° ENE 11:44:57 38° SE visible
14 Jun ? 10:49:46 10° N 10:53:38 32° ENE 10:56:45 14° ESE visible
14 Jun ? 12:32:26 10° WNW 12:35:21 18° WSW 12:36:10 17° WSW visible
15 Jun ? 11:41:51 10° NW 11:45:53 44° WSW 11:48:00 24° S visible
